GPS IIF-6

operational
NORAD ID: 39741 Int'l Des: 2014-026 Owner: AFSMC Country: US Constellation: GPS
MEOCIRCULARGNSS

About GPS IIF-6

Description loading...

Live Position

Loading 3D Globe...

Upcoming Passes

Altitude History

Altitude vs Time

uPlot chart will show altitude changes over time

Two-Line Element Set

1 39741U 14026A 25298.13116254 -.00000077 00000-0 00000-0 0 9991
2 39741 56.6010 340.6683 0037455 316.9529 42.8160 2.00564925 83828
Epoch: Oct 25, 2025 • Age: 10 hours

Current Status

Altitude 20106.0 km
Velocity 3.89 km/s
Sub-Earth Point -48.07°S, 63.81°E
Launch Date May 17, 2014
Age 11.4 years
Type navigation

Technical Details

Classification Payload
Mass 1630.00 kg
Dry Mass 1500.00 kg
Total Mass 1630.00 kg
Length 2.50 m
Diameter 1.80 m
Span 18.00 m
Shape Box+ 2pan
Manufacturer BOES
Bus Type GPS IIF
Phase Status In Orbit
Owner/State AFSMC/US

Large Constellations

Loading constellations...